Overview Statistics Trail Chart Weather Telemetry Raw packets
 

This is the latest recevied weather packets stored in our database for station/object W5ALL-WX. If no packets are shown the sender has not sent any weather packets the latest 10 day(s).

<< 99 100 101 102 103 104 105 >>
Time Temp. Humidity Pressure Rain* Wind** Luminosity Snow
1787863485 32.22° C 23% 1010.2 hPa 0 mm - - -
1787863192 33.33° C 19% 1010.2 hPa 0 mm - - -
1787862885 32.78° C 21% 1010.5 hPa 0 mm - - -
1787862585 32.22° C 23% 1010.9 hPa 0 mm - - -
1787862285 33.33° C 21% 1010.5 hPa 0 mm - - -
1787861985 34.44° C 20% 1010.2 hPa 0 mm - - -
1787861685 34.44° C 21% 1010.2 hPa 0 mm - - -
1787861385 35° C 21% 1010.2 hPa 0 mm - - -
1787861085 35.56° C 19% 1010.5 hPa 0 mm - - -
1787860785 35.56° C 20% 1010.5 hPa 0 mm - - -
1787860485 35.56° C 19% 1010.5 hPa 0 mm - - -
1787860185 35.56° C 19% 1010.5 hPa 0 mm - - -
1787859885 35.56° C 19% 1010.9 hPa 0 mm - - -
1787859585 36.11° C 18% 1010.9 hPa 0 mm - - -
1787859285 36.11° C 20% 1010.9 hPa 0 mm - - -
1787858985 36.11° C 19% 1010.9 hPa 0 mm - - -
1787858685 36.11° C 20% 1010.9 hPa 0 mm - - -
1787858385 35.56° C 20% 1010.9 hPa 0 mm - - -
1787858085 35° C 21% 1010.9 hPa 0 mm - - -
1787857785 35° C 20% 1010.9 hPa 0 mm - - -
1787857485 34.44° C 22% 1010.9 hPa 0 mm - - -
1787857185 33.89° C 22% 1011.2 hPa 0 mm - - -
1787856885 34.44° C 23% 1011.2 hPa 0 mm - - -
1787856585 35° C 21% 1011.2 hPa 0 mm - - -
1787856285 35.56° C 21% 1011.2 hPa 0 mm - - -

* Rain latest hour (hover to see other rain measurements)
** Current wind speed in m/s (hover to see current wind gust speed)